M I D A S
Marine Information and Data Acquisition System
Tripno 2059 of the Zeeleeuw from 2011-03-16 07:51:13 to 2011-03-16 15:12:10
Back to CruiseResearch ActivitiesStationsMapUnderway DataData graphs

EquipmentUnitsComments
TimeDGPSUTC
LatitudeDGPSDM.mWGS84
LongitudeDGPSDM.mWGS84
SpeedMeteo Stationm/sRelative wind speed
DirectionMeteo StationdegRelative wind direction
TemperatureMeteo Stationdeg CelciusAir temperature
PressureMeteo StationPaAtmospheric pressure
HumidityMeteo Station%Relative humidity
Missing or incorrect values are displayed as -999
Metereological data collected by the RV Zeeleeuw from 2011-03-16 07:52:53 to 2011-03-16 15:19:00
Time Latitude Longitude Speed Direction Temperature Pressure Humidity
2011-03-16 07:53 51°13.674 2°55.895 0.1 22 8.2 101100 46
2011-03-16 07:54 51°13.689 2°55.808 3.7 316 8.2 101100 45
2011-03-16 07:55 51°13.701 2°55.766 1.1 255 8.2 101100 46
2011-03-16 07:56 51°13.744 2°55.699 3.3 260 8.3 101100 45
2011-03-16 07:57 51°13.816 2°55.643 5.5 270 8.2 101100 45
2011-03-16 07:58 51°13.898 2°55.617 7.3 24 8.2 101110 45
2011-03-16 07:59 51°13.954 2°55.641 6.2 23 8.1 101100 47
2011-03-16 08:00 51°13.961 2°55.622 4.2 38 8.2 101090 47
2011-03-16 08:01 51°13.989 2°55.534 2.7 25 8.2 101080 47
2011-03-16 08:02 51°14.071 2°55.434 4.6 357 8.2 101090 45
2011-03-16 08:03 51°14.206 2°55.352 4.8 358 8.2 101070 45
2011-03-16 08:04 51°14.341 2°55.234 8.5 359 7.8 101070 45
2011-03-16 08:05 51°14.489 2°55.074 7.8 357 7.5 101070 47
2011-03-16 08:06 51°14.662 2°54.916 8.9 359 7.2 101060 48
2011-03-16 08:07 51°14.833 2°54.718 7.7 357 7 101060 47
2011-03-16 08:08 51°15.009 2°54.522 8.7 357 6.9 101070 48
2011-03-16 08:09 51°15.178 2°54.318 8.7 359 6.8 101070 47
2011-03-16 08:10 51°15.346 2°54.113 9.3 1 6.7 101070 48
2011-03-16 08:11 51°15.513 2°53.904 7.5 2 6.7 101070 47
2011-03-16 08:12 51°15.678 2°53.687 9 5 6.7 101070 48
2011-03-16 08:13 51°15.841 2°53.478 8.8 2 6.7 101060 49
2011-03-16 08:14 51°16.031 2°53.307 10.3 357 6.7 101060 48
2011-03-16 08:15 51°16.218 2°53.149 10.9 358 6.7 101070 48
2011-03-16 08:16 51°16.412 2°52.988 10.1 -999 6.7 101070 49
2011-03-16 08:17 51°16.604 2°52.842 11.8 354 6.7 101070 49
2011-03-16 08:18 51°16.808 2°52.737 9.9 354 6.7 101070 48
2011-03-16 08:19 51°17.01 2°52.636 10.8 354 6.7 101070 49
2011-03-16 08:20 51°17.217 2°52.538 10.7 353 6.6 101070 49
2011-03-16 08:21 51°17.432 2°52.456 11 352 6.6 101060 49
2011-03-16 08:22 51°17.652 2°52.445 12.6 348 6.6 101070 48
2011-03-16 08:23 51°17.874 2°52.445 12.6 349 6.6 101060 48
2011-03-16 08:24 51°18.089 2°52.443 12.2 350 6.6 101060 49
2011-03-16 08:25 51°18.311 2°52.439 14 348 6.5 101050 48
2011-03-16 08:26 51°18.532 2°52.45 13.5 349 6.5 101040 48
2011-03-16 08:27 51°18.752 2°52.46 13.6 347 6.5 101050 48
2011-03-16 08:28 51°18.967 2°52.469 12.6 347 6.5 101050 49
2011-03-16 08:29 51°19.187 2°52.479 12.3 348 6.5 101060 49
2011-03-16 08:30 51°19.412 2°52.486 12.6 346 6.5 101060 48
2011-03-16 08:31 51°19.633 2°52.491 11.7 345 6.6 101050 48
2011-03-16 08:32 51°19.854 2°52.495 13.1 347 6.5 101060 49
2011-03-16 08:33 51°20.076 2°52.499 12.2 346 6.6 101060 48
2011-03-16 08:34 51°20.298 2°52.5 11.7 346 6.6 101070 49
2011-03-16 08:35 51°20.516 2°52.502 11.7 346 6.6 101050 49
2011-03-16 08:36 51°20.74 2°52.507 10.4 346 6.6 101070 49
2011-03-16 08:37 51°20.917 2°52.518 11.2 346 6.6 101080 49
2011-03-16 08:38 51°21.074 2°52.544 9.6 345 6.5 101080 49
2011-03-16 08:39 51°21.229 2°52.577 8.9 341 6.5 101100 49
2011-03-16 08:40 51°21.385 2°52.628 9.1 342 6.5 101090 49
2011-03-16 08:41 51°21.534 2°52.673 9.7 344 6.5 101100 50
2011-03-16 08:42 51°21.702 2°52.721 11.2 342 6.5 101090 49
2011-03-16 08:43 51°21.926 2°52.778 11.3 342 6.5 101070 50
2011-03-16 08:44 51°22.154 2°52.835 13.4 343 6.5 101080 49
2011-03-16 08:45 51°22.379 2°52.892 13 342 6.5 101070 49
2011-03-16 08:46 51°22.6 2°52.945 13.9 343 6.5 101070 49
2011-03-16 08:47 51°22.829 2°52.997 13.2 344 6.5 101070 49
2011-03-16 08:48 51°23.056 2°53.046 14.5 343 6.5 101070 50
2011-03-16 08:49 51°23.284 2°53.099 12.6 344 6.5 101060 49
2011-03-16 08:50 51°23.513 2°53.149 12.7 343 6.5 101060 50
2011-03-16 08:51 51°23.734 2°53.199 13.8 345 6.6 101070 50
2011-03-16 08:52 51°23.964 2°53.252 13.8 344 6.5 101070 48
2011-03-16 08:53 51°24.191 2°53.302 12.3 345 6.6 101050 49
2011-03-16 08:54 51°24.423 2°53.354 13.5 343 6.6 101050 48
2011-03-16 08:55 51°24.643 2°53.406 15 346 6.6 101050 49
2011-03-16 08:56 51°24.871 2°53.454 10.6 345 6.6 101050 49
2011-03-16 08:57 51°25.104 2°53.5 13.5 346 6.6 101050 48
2011-03-16 08:58 51°25.328 2°53.539 11.8 346 6.6 101050 49
2011-03-16 08:59 51°25.552 2°53.58 12 345 6.6 101040 48
2011-03-16 09:00 51°25.774 2°53.618 13.2 344 6.6 101040 49
2011-03-16 09:01 51°26.006 2°53.661 12.4 345 6.6 101050 49
2011-03-16 09:02 51°26.232 2°53.701 12.3 345 6.6 101050 49
2011-03-16 09:03 51°26.461 2°53.742 11.2 346 6.6 101040 49
2011-03-16 09:04 51°26.687 2°53.763 12.2 348 6.6 101040 48
2011-03-16 09:05 51°26.916 2°53.768 14 346 6.6 101040 49
2011-03-16 09:06 51°27.151 2°53.781 14.9 348 6.6 101050 49
2011-03-16 09:07 51°27.383 2°53.794 13.4 348 6.6 101030 49
2011-03-16 09:08 51°27.614 2°53.832 13.1 346 6.7 101040 49
2011-03-16 09:09 51°27.843 2°53.868 11.5 347 6.7 101050 48
2011-03-16 09:10 51°28.071 2°53.906 12.1 346 6.7 101040 49
2011-03-16 09:11 51°28.295 2°53.94 16 345 6.7 101050 49
2011-03-16 09:12 51°28.525 2°53.977 13.3 344 6.7 101050 49
2011-03-16 09:13 51°28.759 2°54.013 11.7 345 6.7 101060 49
2011-03-16 09:14 51°28.987 2°54.044 12.6 344 6.7 101060 48
2011-03-16 09:15 51°29.217 2°54.084 12.5 341 6.7 101060 48
2011-03-16 09:16 51°29.44 2°54.124 12.5 341 6.6 101070 49
2011-03-16 09:17 51°29.665 2°54.163 11.6 342 6.6 101080 48
2011-03-16 09:18 51°29.891 2°54.201 14.7 340 6.6 101070 49
2011-03-16 09:19 51°30.117 2°54.242 12.5 343 6.5 101070 49
2011-03-16 09:20 51°30.338 2°54.282 11.3 344 6.5 101060 49
2011-03-16 09:21 51°30.569 2°54.322 12.3 344 6.5 101070 48
2011-03-16 09:22 51°30.795 2°54.364 14 345 6.5 101070 49
2011-03-16 09:23 51°31.018 2°54.407 13.5 344 6.5 101070 49
2011-03-16 09:24 51°31.242 2°54.452 12.1 344 6.5 101070 48
2011-03-16 09:25 51°31.466 2°54.494 14.4 344 6.5 101070 48
2011-03-16 09:26 51°31.69 2°54.537 12.3 344 6.5 101060 50
2011-03-16 09:27 51°31.914 2°54.579 12.2 345 6.5 101070 49
2011-03-16 09:28 51°32.138 2°54.622 13.7 345 6.5 101070 49
2011-03-16 09:29 51°32.353 2°54.663 12.3 344 6.5 101070 48
2011-03-16 09:30 51°32.58 2°54.709 13 344 6.5 101070 49
2011-03-16 09:31 51°32.803 2°54.799 14.6 340 6.5 101120 48
2011-03-16 09:32 51°33.012 2°54.944 15.1 339 6.5 101070 49
2011-03-16 09:33 51°33.213 2°55.108 14.3 333 6.5 101080 49
2011-03-16 09:34 51°33.34 2°55.346 13.3 325 6.6 101100 48
2011-03-16 09:35 51°33.363 2°55.563 10.4 32 6.6 101090 48
2011-03-16 09:36 51°33.302 2°55.739 8.1 23 6.6 101090 50
2011-03-16 09:37 51°33.238 2°55.942 9.1 26 6.6 101090 49
2011-03-16 09:38 51°33.183 2°56.069 5.2 261 6.6 101110 49
2011-03-16 09:39 51°33.134 2°56.048 4.3 22 6.6 101120 50
2011-03-16 09:40 51°33.134 2°55.989 5.8 36 6.7 101110 48
2011-03-16 09:41 51°33.147 2°55.955 7.5 32 6.7 101110 50
2011-03-16 09:42 51°33.163 2°55.936 6 25 6.6 101110 50
2011-03-16 09:43 51°33.177 2°55.931 7 19 6.6 101100 50
2011-03-16 09:44 51°33.194 2°55.929 8 16 6.6 101100 47
2011-03-16 09:45 51°33.211 2°55.927 7.6 20 6.6 101110 49
2011-03-16 09:46 51°33.229 2°55.925 8.4 22 6.6 101100 48
2011-03-16 09:47 51°33.244 2°55.92 8 18 6.6 101100 48
2011-03-16 09:48 51°33.261 2°55.915 6.3 24 6.5 101110 47
2011-03-16 09:49 51°33.279 2°55.908 8.3 21 6.6 101100 47
2011-03-16 09:50 51°33.293 2°55.872 7.4 36 6.6 101120 48
2011-03-16 09:51 51°33.275 2°55.842 6.5 32 6.6 101120 50
2011-03-16 09:52 51°33.245 2°55.868 7.8 254 6.6 101120 49
2011-03-16 09:53 51°33.228 2°55.933 9.6 238 6.7 101120 48
2011-03-16 09:54 51°33.215 2°56.026 7.3 238 6.7 101090 50
2011-03-16 09:55 51°33.181 2°56.106 11.3 259 6.7 101120 48
2011-03-16 09:56 51°33.131 2°56.157 6.7 261 6.8 101120 49
2011-03-16 09:57 51°33.078 2°56.196 5.6 263 6.8 101110 48
2011-03-16 09:58 51°33.051 2°56.217 7.6 269 6.7 101120 47
2011-03-16 09:59 51°33.052 2°56.224 7.9 33 6.7 101120 47
2011-03-16 10:00 51°33.046 2°56.22 5.7 31 6.6 101120 49
2011-03-16 10:01 51°33.035 2°56.151 5.6 33 6.7 101100 47
2011-03-16 10:02 51°33.068 2°56.054 8.6 22 6.7 101100 49
2011-03-16 10:03 51°33.102 2°56.015 6.8 25 6.7 101100 47
2011-03-16 10:04 51°33.127 2°56.001 7.5 21 6.6 101090 49
2011-03-16 10:05 51°33.149 2°55.991 6.5 24 6.6 101090 49
2011-03-16 10:06 51°33.169 2°55.98 8.7 25 6.6 101090 49
2011-03-16 10:07 51°33.19 2°55.964 7.7 30 6.6 101100 49
2011-03-16 10:08 51°33.207 2°55.935 7 38 6.6 101090 47
2011-03-16 10:09 51°33.213 2°55.902 7.6 33 6.6 101110 47
2011-03-16 10:10 51°33.213 2°55.878 7 32 6.6 101100 47
2011-03-16 10:11 51°33.215 2°55.857 7.5 40 6.6 101100 48
2011-03-16 10:12 51°33.223 2°55.841 7.7 38 6.6 101090 47
2011-03-16 10:13 51°33.235 2°55.832 8.6 33 6.6 101090 49
2011-03-16 10:14 51°33.246 2°55.829 7.6 29 6.6 101090 48
2011-03-16 10:15 51°33.256 2°55.83 8.9 27 6.6 101090 47
2011-03-16 10:16 51°33.265 2°55.833 7.3 27 6.6 101090 49
2011-03-16 10:17 51°33.272 2°55.838 9.4 23 6.6 101090 49
2011-03-16 10:18 51°33.276 2°55.843 9.1 25 6.6 101080 49
2011-03-16 10:19 51°33.278 2°55.852 8.6 23 6.6 101090 49
2011-03-16 10:20 51°33.279 2°55.863 9.8 27 6.6 101090 49
2011-03-16 10:21 51°33.279 2°55.877 7.1 32 6.6 101090 47
2011-03-16 10:22 51°33.28 2°55.891 9.4 33 6.6 101090 47
2011-03-16 10:23 51°33.282 2°55.904 8.1 33 6.6 101090 49
2011-03-16 10:24 51°33.285 2°55.916 7.3 32 6.6 101090 49
2011-03-16 10:25 51°33.29 2°55.917 7.8 33 6.6 101090 48
2011-03-16 10:26 51°33.3 2°55.906 8.4 36 6.6 101080 48
2011-03-16 10:27 51°33.308 2°55.878 6.1 41 6.6 101090 48
2011-03-16 10:28 51°33.308 2°55.828 6.5 42 6.6 101090 48
2011-03-16 10:29 51°33.319 2°55.781 6.5 26 6.6 101090 49
2011-03-16 10:30 51°33.337 2°55.746 8.6 30 6.6 101090 49
2011-03-16 10:31 51°33.358 2°55.723 7.2 31 6.6 101090 49
2011-03-16 10:32 51°33.378 2°55.706 7 23 6.6 101080 47
2011-03-16 10:33 51°33.406 2°55.687 8.7 9 6.6 101090 49
2011-03-16 10:34 51°33.453 2°55.683 7.4 349 6.6 101080 49
2011-03-16 10:35 51°33.499 2°55.721 10.1 331 6.5 101080 47
2011-03-16 10:36 51°33.516 2°55.8 9.4 244 6.6 101070 49
2011-03-16 10:37 51°33.47 2°55.863 6.7 263 6.6 101100 47
2011-03-16 10:38 51°33.386 2°55.936 8.8 254 6.6 101100 48
2011-03-16 10:39 51°33.295 2°56.037 7.9 251 6.7 101090 48
2011-03-16 10:40 51°33.201 2°56.133 7.7 256 6.7 101090 48
2011-03-16 10:41 51°33.114 2°56.186 5.5 32 6.7 101080 47
2011-03-16 10:42 51°33.082 2°56.14 6.9 43 6.7 101090 50
2011-03-16 10:43 51°33.084 2°56.094 6.6 39 6.6 101070 47
2011-03-16 10:44 51°33.096 2°56.068 6.6 30 6.6 101070 49
2011-03-16 10:45 51°33.109 2°56.054 7.3 28 6.6 101080 50
2011-03-16 10:46 51°33.124 2°56.05 6.7 20 6.5 101080 49
2011-03-16 10:47 51°33.137 2°56.052 6.8 17 6.5 101080 49
2011-03-16 10:48 51°33.147 2°56.054 8 21 6.5 101070 49
2011-03-16 10:49 51°33.156 2°56.058 6.8 18 6.5 101070 49
2011-03-16 10:50 51°33.162 2°56.064 8.2 23 6.5 101070 47
2011-03-16 10:51 51°33.168 2°56.07 8 25 6.5 101070 47
2011-03-16 10:52 51°33.172 2°56.078 7.3 28 6.5 101070 50
2011-03-16 10:53 51°33.177 2°56.085 7.3 29 6.5 101070 49
2011-03-16 10:54 51°33.188 2°56.056 6.1 37 6.4 101080 50
2011-03-16 10:55 51°33.188 2°55.984 5.3 37 6.4 101080 50
2011-03-16 10:56 51°33.188 2°55.87 8.1 30 6.4 101080 49
2011-03-16 10:57 51°33.208 2°55.786 7.3 27 6.4 101080 49
2011-03-16 10:58 51°33.231 2°55.745 6.8 21 6.4 101080 49
2011-03-16 10:59 51°33.258 2°55.715 6.6 18 6.4 101080 49
2011-03-16 11:00 51°33.283 2°55.689 8.8 19 6.4 101070 50
2011-03-16 11:01 51°33.304 2°55.681 7.9 13 6.4 101080 49
2011-03-16 11:02 51°33.323 2°55.679 7.1 9 6.4 101080 50
2011-03-16 11:03 51°33.38 2°55.674 9.1 344 6.3 101070 49
2011-03-16 11:04 51°33.436 2°55.76 10 25 6.4 101080 49
2011-03-16 11:05 51°33.408 2°55.861 5.7 262 6.4 101090 49
2011-03-16 11:06 51°33.33 2°55.9 5.9 26 6.4 101110 50
2011-03-16 11:07 51°33.252 2°55.854 0.2 24 6.4 101100 47
2011-03-16 11:08 51°33.215 2°55.736 4.1 21 6.4 101100 48
2011-03-16 11:09 51°33.212 2°55.647 8 34 6.4 101100 49
2011-03-16 11:10 51°33.23 2°55.586 6.2 32 6.4 101100 50
2011-03-16 11:11 51°33.254 2°55.543 8.9 24 6.4 101090 48
2011-03-16 11:12 51°33.279 2°55.521 9.3 23 6.3 101100 49
2011-03-16 11:13 51°33.3 2°55.512 9.2 17 6.3 101090 48
2011-03-16 11:14 51°33.315 2°55.508 8.6 18 6.3 101090 49
2011-03-16 11:15 51°33.325 2°55.506 8.6 22 6.3 101090 48
2011-03-16 11:16 51°33.334 2°55.506 7.9 24 6.3 101090 48
2011-03-16 11:17 51°33.341 2°55.511 10.4 23 6.3 101090 49
2011-03-16 11:18 51°33.349 2°55.51 7.6 28 6.3 101090 49
2011-03-16 11:19 51°33.356 2°55.514 9.3 25 6.3 101100 50
2011-03-16 11:20 51°33.361 2°55.518 7 25 6.3 101090 48
2011-03-16 11:21 51°33.366 2°55.524 9.5 30 6.3 101090 48
2011-03-16 11:22 51°33.371 2°55.529 8.8 30 6.3 101070 49
2011-03-16 11:23 51°33.376 2°55.535 7.6 31 6.3 101080 47
2011-03-16 11:24 51°33.381 2°55.542 7.5 28 6.3 101080 50
2011-03-16 11:25 51°33.386 2°55.549 9 28 6.3 101090 49
2011-03-16 11:26 51°33.392 2°55.556 7 27 6.3 101090 49
2011-03-16 11:27 51°33.396 2°55.562 11.1 30 6.3 101090 49
2011-03-16 11:28 51°33.4 2°55.568 8.8 29 6.3 101080 48
2011-03-16 11:29 51°33.406 2°55.573 7.1 27 6.3 101080 50
2011-03-16 11:30 51°33.411 2°55.579 9.5 28 6.3 101090 49
2011-03-16 11:31 51°33.416 2°55.585 7.7 26 6.3 101080 49
2011-03-16 11:32 51°33.421 2°55.593 7.2 27 6.3 101080 50
2011-03-16 11:33 51°33.427 2°55.601 9.4 27 6.3 101090 48
2011-03-16 11:34 51°33.432 2°55.609 8 28 6.3 101080 48
2011-03-16 11:35 51°33.437 2°55.616 6.4 28 6.3 101070 49
2011-03-16 11:36 51°33.441 2°55.623 8.9 28 6.3 101090 50
2011-03-16 11:37 51°33.446 2°55.63 9.1 29 6.3 101080 50
2011-03-16 11:38 51°33.451 2°55.635 9.4 29 6.3 101070 47
2011-03-16 11:39 51°33.456 2°55.643 6 27 6.3 101070 48
2011-03-16 11:40 51°33.461 2°55.651 6.9 32 6.3 101070 49
2011-03-16 11:41 51°33.466 2°55.659 7.4 29 6.3 101070 47
2011-03-16 11:42 51°33.472 2°55.667 8.6 30 6.3 101060 49
2011-03-16 11:43 51°33.478 2°55.676 7.8 28 6.3 101070 49
2011-03-16 11:44 51°33.483 2°55.686 6.7 28 6.3 101070 50
2011-03-16 11:45 51°33.488 2°55.696 6.1 31 6.3 101070 50
2011-03-16 11:46 51°33.495 2°55.705 8.1 28 6.3 101060 47
2011-03-16 11:47 51°33.502 2°55.715 7.1 28 6.3 101070 47
2011-03-16 11:48 51°33.508 2°55.725 6.3 28 6.3 101060 50
2011-03-16 11:49 51°33.516 2°55.733 5.7 25 6.3 101070 49
2011-03-16 11:50 51°33.522 2°55.743 6 27 6.3 101060 49
2011-03-16 11:51 51°33.531 2°55.75 6.1 25 6.3 101060 49
2011-03-16 11:52 51°33.554 2°55.709 6.2 37 6.3 101060 50
2011-03-16 11:53 51°33.539 2°55.651 5.3 24 6.4 101070 50
2011-03-16 11:54 51°33.44 2°55.69 8.3 254 6.4 101070 48
2011-03-16 11:55 51°33.297 2°55.806 8.8 247 6.4 101070 50
2011-03-16 11:56 51°33.148 2°55.915 6.4 250 6.5 101070 48
2011-03-16 11:57 51°32.994 2°56.041 8.8 247 6.5 101060 50
2011-03-16 11:58 51°32.945 2°56.2 9.3 27 6.5 101060 48
2011-03-16 11:59 51°32.982 2°56.292 9.4 338 6.5 101050 50
2011-03-16 12:00 51°33.033 2°56.302 9.5 15 6.4 101040 50
2011-03-16 12:01 51°33.063 2°56.274 6.6 22 6.4 101050 49
2011-03-16 12:02 51°33.088 2°56.25 8 18 6.4 101050 48
2011-03-16 12:03 51°33.148 2°56.17 5.8 7 6.4 101050 48
2011-03-16 12:04 51°33.225 2°56.054 9.9 9 6.4 101050 48
2011-03-16 12:05 51°33.278 2°55.913 6.1 26 6.4 101050 50
2011-03-16 12:06 51°33.287 2°55.735 5.3 29 6.4 101050 50
2011-03-16 12:07 51°33.291 2°55.529 5.4 28 6.3 101040 48
2011-03-16 12:08 51°33.279 2°55.319 1.5 38 6.3 101040 50
2011-03-16 12:09 51°33.216 2°55.138 2.7 22 6.4 101040 50
2011-03-16 12:10 51°33.106 2°55.083 4.2 262 6.4 101040 49
2011-03-16 12:11 51°32.976 2°55.104 4 262 6.4 101030 48
2011-03-16 12:12 51°32.868 2°55.169 7.3 20 6.5 101030 50
2011-03-16 12:13 51°32.836 2°55.258 7.6 252 6.5 101010 50
2011-03-16 12:14 51°32.808 2°55.326 8.1 258 6.5 101010 50
2011-03-16 12:15 51°32.765 2°55.378 4.6 264 6.5 101020 48
2011-03-16 12:16 51°32.722 2°55.446 7.6 257 6.5 101010 49
2011-03-16 12:17 51°32.686 2°55.484 5.3 19 6.5 101020 47
2011-03-16 12:18 51°32.666 2°55.466 3.4 26 6.5 101020 47
2011-03-16 12:19 51°32.663 2°55.447 5.4 24 6.6 101020 50
2011-03-16 12:20 51°32.661 2°55.433 3.8 21 6.8 101020 51
2011-03-16 12:21 51°32.664 2°55.417 8.1 24 6.8 101020 48
2011-03-16 12:22 51°32.67 2°55.4 5.9 23 6.7 101010 48
2011-03-16 12:23 51°32.676 2°55.382 8.1 42 6.6 101010 50
2011-03-16 12:24 51°32.687 2°55.36 5.9 30 6.6 101010 49
2011-03-16 12:25 51°32.723 2°55.293 6.9 15 6.6 101000 47
2011-03-16 12:26 51°32.776 2°55.185 7.3 15 6.5 101010 47
2011-03-16 12:27 51°32.825 2°55.088 6.8 12 6.5 101000 49
2011-03-16 12:28 51°32.868 2°55.041 7.6 11 6.5 101000 50
2011-03-16 12:29 51°32.9 2°55.017 6.9 12 6.5 101000 48
2011-03-16 12:30 51°32.926 2°55.004 6.7 6 6.5 101010 50
2011-03-16 12:31 51°32.948 2°54.995 6.8 11 6.5 101010 50
2011-03-16 12:32 51°32.965 2°54.986 7.1 11 6.5 101010 47
2011-03-16 12:33 51°32.977 2°54.98 8.1 14 6.5 101000 47
2011-03-16 12:34 51°32.986 2°54.977 7.3 23 6.5 101000 49
2011-03-16 12:35 51°32.996 2°54.974 7.3 23 6.6 101010 50
2011-03-16 12:36 51°33.006 2°54.973 6.3 23 6.5 101000 47
2011-03-16 12:37 51°33.017 2°54.962 6.4 25 6.6 101010 50
2011-03-16 12:38 51°33.033 2°54.946 6.4 15 6.6 101010 48
2011-03-16 12:39 51°33.047 2°54.936 7.1 12 6.5 100990 49
2011-03-16 12:40 51°33.067 2°54.921 8 359 6.5 100990 47
2011-03-16 12:41 51°33.11 2°54.909 8.2 341 6.5 100990 49
2011-03-16 12:42 51°33.136 2°54.91 7.3 343 6.4 100990 48
2011-03-16 12:43 51°33.167 2°54.9 7.1 8 6.4 100990 50
2011-03-16 12:44 51°33.186 2°54.831 4.5 22 6.4 101000 50
2011-03-16 12:45 51°33.143 2°54.818 5.1 263 6.4 101010 47
2011-03-16 12:46 51°33.089 2°54.908 9.2 257 6.4 101010 49
2011-03-16 12:47 51°33.021 2°54.996 4.1 264 6.4 101010 50
2011-03-16 12:48 51°32.949 2°55.056 5.1 264 6.4 101010 48
2011-03-16 12:49 51°32.89 2°55.146 8.3 251 6.5 101010 49
2011-03-16 12:50 51°32.852 2°55.262 6.8 247 6.5 101010 50
2011-03-16 12:51 51°32.833 2°55.355 7.5 254 6.5 101000 48
2011-03-16 12:52 51°32.827 2°55.42 7.2 250 6.5 101000 48
2011-03-16 12:53 51°32.815 2°55.473 5.9 269 6.6 101010 48
2011-03-16 12:54 51°32.787 2°55.479 4.2 18 6.5 101000 48
2011-03-16 12:55 51°32.777 2°55.441 6 43 6.5 100990 50
2011-03-16 12:56 51°32.774 2°55.395 6.1 38 6.4 100990 47
2011-03-16 12:57 51°32.775 2°55.347 6.6 38 6.4 100990 48
2011-03-16 12:58 51°32.782 2°55.304 6.8 34 6.4 101000 49
2011-03-16 12:59 51°32.792 2°55.274 8.1 27 6.4 100990 48
2011-03-16 13:00 51°32.805 2°55.253 8.2 22 6.4 100980 48
2011-03-16 13:01 51°32.816 2°55.242 7.1 21 6.4 100980 50
2011-03-16 13:02 51°32.819 2°55.244 7.6 24 6.4 100980 50
2011-03-16 13:03 51°32.82 2°55.256 6.6 35 6.4 100980 47
2011-03-16 13:04 51°32.822 2°55.27 8.1 34 6.4 100980 50
2011-03-16 13:05 51°32.826 2°55.288 8.3 38 6.4 100980 50
2011-03-16 13:06 51°32.831 2°55.303 7.3 41 6.3 100980 47
2011-03-16 13:07 51°32.834 2°55.308 6.7 37 6.3 100970 48
2011-03-16 13:08 51°32.837 2°55.306 6.6 35 6.3 100960 50
2011-03-16 13:09 51°32.841 2°55.298 7.3 28 6.3 100960 48
2011-03-16 13:10 51°32.848 2°55.29 8.3 26 6.3 100960 49
2011-03-16 13:11 51°32.854 2°55.283 8.6 21 6.3 100960 49
2011-03-16 13:12 51°32.86 2°55.276 6.1 20 6.4 100960 48
2011-03-16 13:13 51°32.864 2°55.269 6.5 20 6.4 100960 50
2011-03-16 13:14 51°32.87 2°55.263 6 18 6.4 100960 50
2011-03-16 13:15 51°32.873 2°55.256 7.9 25 6.4 100960 50
2011-03-16 13:16 51°32.876 2°55.249 4.4 30 6.4 100970 48
2011-03-16 13:17 51°32.882 2°55.235 7 17 6.4 100960 50
2011-03-16 13:18 51°32.897 2°55.205 8.4 11 6.4 100950 49
2011-03-16 13:19 51°32.922 2°55.166 8 7 6.4 100950 49
2011-03-16 13:20 51°32.946 2°55.138 8.2 8 6.4 100950 50
2011-03-16 13:21 51°32.961 2°55.121 5.5 4 6.4 100960 50
2011-03-16 13:22 51°32.969 2°55.109 7.1 8 6.4 100960 48
2011-03-16 13:23 51°32.972 2°55.1 7.2 15 6.4 100950 48
2011-03-16 13:24 51°32.972 2°55.095 8.7 20 6.4 100940 48
2011-03-16 13:25 51°32.971 2°55.093 8.2 25 6.4 100940 48
2011-03-16 13:26 51°32.971 2°55.092 7.6 25 6.4 100940 49
2011-03-16 13:27 51°32.972 2°55.072 6.5 32 6.4 100950 50
2011-03-16 13:28 51°32.965 2°55.015 4.7 19 6.4 100940 48
2011-03-16 13:29 51°32.926 2°54.968 0.8 33 6.5 100950 48
2011-03-16 13:30 51°32.833 2°54.891 3.8 35 6.7 100960 49
2011-03-16 13:31 51°32.704 2°54.856 1.7 38 6.6 100940 49
2011-03-16 13:32 51°32.546 2°54.813 2.1 22 6.6 100940 47
2011-03-16 13:33 51°32.369 2°54.763 0.2 33 6.6 100950 53
2011-03-16 13:34 51°32.193 2°54.712 1.3 261 6.7 100950 51
2011-03-16 13:35 51°32.017 2°54.673 0.7 266 6.7 100940 49
2011-03-16 13:36 51°31.842 2°54.635 0.9 270 6.8 100940 46
2011-03-16 13:37 51°31.667 2°54.588 0.3 263 6.8 100940 49
2011-03-16 13:38 51°31.49 2°54.547 0.9 26 6.8 100950 51
2011-03-16 13:39 51°31.317 2°54.513 0.7 270 6.8 100950 48
2011-03-16 13:40 51°31.139 2°54.469 0.1 262 6.9 100940 49
2011-03-16 13:41 51°30.966 2°54.435 2.9 260 6.9 100950 47
2011-03-16 13:42 51°30.786 2°54.405 0.2 264 6.9 100940 49
2011-03-16 13:43 51°30.609 2°54.37 0.1 256 7 100940 48
2011-03-16 13:44 51°30.423 2°54.341 0.5 266 7 100940 48
2011-03-16 13:45 51°30.243 2°54.314 0.1 266 7 100940 48
2011-03-16 13:46 51°30.051 2°54.282 0.1 261 7.1 100940 50
2011-03-16 13:47 51°29.864 2°54.252 0.6 256 7.1 100940 47
2011-03-16 13:48 51°29.676 2°54.219 0.4 263 7.1 100930 48
2011-03-16 13:49 51°29.482 2°54.188 0.7 263 7.2 100940 48
2011-03-16 13:50 51°29.295 2°54.152 0.1 255 7.2 100930 48
2011-03-16 13:51 51°29.106 2°54.123 3.9 255 7.2 100930 48
2011-03-16 13:52 51°28.921 2°54.089 0.5 260 7.2 100930 49
2011-03-16 13:53 51°28.732 2°54.047 2.1 258 7.3 100940 48
2011-03-16 13:54 51°28.543 2°54.006 0.6 253 7.3 100930 48
2011-03-16 13:55 51°28.35 2°53.971 1.2 257 7.3 100930 49
2011-03-16 13:56 51°28.163 2°53.938 0.3 258 7.3 100930 48
2011-03-16 13:57 51°27.968 2°53.896 0.2 261 7.3 100930 50
2011-03-16 13:58 51°27.777 2°53.865 0.1 258 7.3 100930 48
2011-03-16 13:59 51°27.585 2°53.832 0.2 262 7.3 100920 48
2011-03-16 14:00 51°27.392 2°53.791 1.3 261 7.3 100920 48
2011-03-16 14:01 51°27.198 2°53.751 0.1 255 7.3 100920 48
2011-03-16 14:02 51°27.009 2°53.717 0.9 259 7.3 100920 47
2011-03-16 14:03 51°26.812 2°53.681 3 259 7.3 100920 46
2011-03-16 14:04 51°26.621 2°53.646 0.1 254 7.3 100910 48
2011-03-16 14:05 51°26.424 2°53.607 1.1 261 7.4 100910 48
2011-03-16 14:06 51°26.233 2°53.572 0.2 262 7.4 100910 48
2011-03-16 14:07 51°26.038 2°53.552 0.4 256 7.3 100900 46
2011-03-16 14:08 51°25.843 2°53.53 3.4 259 7.3 100900 48
2011-03-16 14:09 51°25.643 2°53.506 0.2 263 7.3 100900 46
2011-03-16 14:10 51°25.445 2°53.48 0.3 262 7.3 100900 48
2011-03-16 14:11 51°25.248 2°53.455 0.3 262 7.3 100890 48
2011-03-16 14:12 51°25.048 2°53.424 0.1 261 7.3 100890 48
2011-03-16 14:13 51°24.854 2°53.396 0.6 262 7.3 100910 48
2011-03-16 14:14 51°24.673 2°53.366 0.1 266 7.2 100900 47
2011-03-16 14:15 51°24.531 2°53.339 4.6 32 7.2 100900 49
2011-03-16 14:16 51°24.437 2°53.323 5.3 37 7.1 100890 48
2011-03-16 14:17 51°24.311 2°53.301 1 37 7 100890 49
2011-03-16 14:18 51°24.165 2°53.272 1.7 39 7 100890 47
2011-03-16 14:19 51°23.986 2°53.239 -999 266 7 100890 48
2011-03-16 14:20 51°23.795 2°53.202 -999 260 7.1 100880 48
2011-03-16 14:21 51°23.586 2°53.162 0.9 264 7.1 100880 48
2011-03-16 14:22 51°23.361 2°53.128 0.1 261 7.1 100880 49
2011-03-16 14:23 51°23.144 2°53.088 0.1 264 7.1 100880 48
2011-03-16 14:24 51°22.928 2°53.045 0.1 261 7.2 100880 47
2011-03-16 14:25 51°22.717 2°53.009 0.5 269 7.2 100870 48
2011-03-16 14:26 51°22.497 2°52.969 0.4 43 7.2 100870 48
2011-03-16 14:27 51°22.288 2°52.886 -999 36 7.2 100860 48
2011-03-16 14:28 51°22.07 2°52.8 0.1 36 7.2 100860 48
2011-03-16 14:29 51°21.852 2°52.715 0.1 266 7.2 100860 48
2011-03-16 14:30 51°21.638 2°52.638 -999 37 7.2 100860 48
2011-03-16 14:31 51°21.432 2°52.56 1.3 270 7.2 100860 48
2011-03-16 14:32 51°21.233 2°52.481 0.4 35 7.2 100850 47
2011-03-16 14:33 51°21.038 2°52.405 0.1 268 7.1 100850 48
2011-03-16 14:34 51°20.837 2°52.354 0.2 35 7.1 100840 48
2011-03-16 14:35 51°20.633 2°52.303 0.1 269 7.1 100850 48
2011-03-16 14:36 51°20.43 2°52.251 0.1 29 7.2 100850 48
2011-03-16 14:37 51°20.229 2°52.201 -999 263 7.2 100850 48
2011-03-16 14:38 51°20.033 2°52.13 -999 34 7.2 100840 48
2011-03-16 14:39 51°19.833 2°52.047 -999 35 7.2 100840 48
2011-03-16 14:40 51°19.638 2°51.965 -999 35 7.1 100840 48
2011-03-16 14:41 51°19.439 2°51.902 1.3 38 7.1 100830 48
2011-03-16 14:42 51°19.24 2°51.877 0.7 40 7.1 100830 48
2011-03-16 14:43 51°19.038 2°51.865 3.8 269 7.1 100820 50
2011-03-16 14:44 51°18.837 2°51.868 2.5 37 7.1 100820 46
2011-03-16 14:45 51°18.634 2°51.868 2.9 269 7 100820 47
2011-03-16 14:46 51°18.437 2°51.873 3.2 40 7 100810 47
2011-03-16 14:47 51°18.236 2°51.893 3.3 268 7 100800 50
2011-03-16 14:48 51°18.042 2°51.951 4.7 267 6.9 100800 47
2011-03-16 14:49 51°17.851 2°52.009 3.5 265 6.9 100800 46
2011-03-16 14:50 51°17.653 2°52.073 3.1 263 6.9 100800 49
2011-03-16 14:51 51°17.459 2°52.129 3.8 259 6.9 100800 49
2011-03-16 14:52 51°17.273 2°52.233 7.4 252 6.9 100800 50
2011-03-16 14:53 51°17.096 2°52.379 7 255 6.9 100790 47
2011-03-16 14:54 51°16.926 2°52.524 8.8 254 7 100790 48
2011-03-16 14:55 51°16.753 2°52.664 5.9 252 7 100790 47
2011-03-16 14:56 51°16.579 2°52.801 8.5 256 7.1 100800 47
2011-03-16 14:57 51°16.404 2°52.936 6.3 255 7.1 100790 48
2011-03-16 14:58 51°16.225 2°53.06 5.8 254 7.1 100790 48
2011-03-16 14:59 51°16.056 2°53.198 6.6 251 7.2 100790 49
2011-03-16 15:00 51°15.883 2°53.343 6.5 250 7.2 100790 48
2011-03-16 15:01 51°15.718 2°53.496 8.3 251 7.2 100790 49
2011-03-16 15:02 51°15.557 2°53.659 8.3 250 7.2 100780 47
2011-03-16 15:03 51°15.401 2°53.83 8.7 249 7.2 100780 49
2011-03-16 15:04 51°15.248 2°54.027 8.8 251 7.1 100770 48
2011-03-16 15:05 51°15.102 2°54.217 9.8 247 7.1 100770 49
2011-03-16 15:06 51°14.955 2°54.422 10.7 252 7.1 100770 49
2011-03-16 15:07 51°14.802 2°54.611 7.9 247 7.1 100770 49
2011-03-16 15:08 51°14.647 2°54.804 9.3 254 7.1 100770 49
2011-03-16 15:09 51°14.493 2°54.988 8.1 250 7.1 100770 48
2011-03-16 15:10 51°14.347 2°55.19 6.3 249 7.1 100770 48
2011-03-16 15:11 51°14.193 2°55.355 6.1 254 7.1 100780 48
2011-03-16 15:12 51°14.042 2°55.473 4.7 22 7.2 100790 50
2011-03-16 15:13 51°13.906 2°55.571 4.8 254 7.2 100790 47
2011-03-16 15:14 51°13.797 2°55.663 5.2 256 7.3 100800 47
2011-03-16 15:15 51°13.732 2°55.764 8.3 258 7.3 100800 48
2011-03-16 15:16 51°13.691 2°55.85 5.4 251 7.4 100800 50
2011-03-16 15:17 51°13.668 2°55.932 3.7 263 7.5 100790 48
2011-03-16 15:18 51°13.662 2°55.96 0.2 25 7.5 100790 50